Terminal Aerodrome Forecast
Issued by NWS

Home | Current Version | Previous Version | Text Only | Print | Product List | Glossary On
Versions: 1 2 3 4 5 6 7 8 9 10 11 12 13 14 15 16 17 18 19
000
FTUS43 KJKL 300306 AAA
TAFSJS
TAF AMD
KSJS 300306Z 3003/3024 VRB03KT 1SM BR VV007
     FM300900 19003KT 1/2SM FG VV002
     FM301300 19004KT P6SM SCT080
     FM301800 21007KT P6SM VCTS BKN060CB=

USA.gov is the U.S. government's official web portal to all federal, state and local government web resources and services.